Location: Newark
(41.8083°N, 72.2500°W)
Time: 11:27:18
(UTC+00:00)

Explorer 11/Cluster Stage 4 - Pass Details

Date: 10 December 2021
Orbit: 467 x 1255 km, 28.8° (Epoch: 23 January)

Event Time Altitude Azimuth Distance (km) Brightness Sun altitude
Rises 09:06:46 0° 251° (WSW) 3,481 - -32.4°
Reaches altitude 10° 09:11:04 10° 222° (SW) 2,735 - -31.7°
Maximum altitude 09:13:35 12° 200° (SSW) 2,670 - -31.2°
Exits shadow 09:14:38 12° 191° (S) 2,738 9.3 -31.0°
Drops below altitude 10° 09:16:14 10° 178° (S) 2,935 9.5 -30.7°
Sets 09:21:18 0° 152° (SSE) 4,046 10.7 -29.7°
